CXA567 CYOD-CYXY

Flight info

Callsign CXA567
Flight time 2h 9m
Altitude 43000
Route KAVDA DCT YPE J537 YYE J515 YQH DCT DAPAL
Aircraft C750/M-SDGHIM3RWXY/S

Departure

Time 2026-05-04 09:49
Airport CFB Cold Lake (CYOD)

Arrival

Time 2026-05-04 11:58
Airport Whitehorse / Erik Nielsen International Airport (CYXY)
Time Latitude Longitude Altitude Speed Heading
2026-05-04 09:46 54.39370 -110.26454 1777 ft 0 kts 225°
2026-05-04 09:49 54.40212 -110.28336 1927 ft 166 kts 324°
2026-05-04 09:49 54.41193 -110.29565 2741 ft 192 kts 317°
2026-05-04 09:49 54.41862 -110.31562 3772 ft 211 kts 277°
2026-05-04 09:51 54.42678 -110.48724 9850 ft 287 kts 284°
2026-05-04 09:51 54.43167 -110.52056 10766 ft 298 kts 284°
2026-05-04 09:51 54.43684 -110.55576 11525 ft 314 kts 284°
2026-05-04 09:51 54.44220 -110.59233 12411 ft 322 kts 284°
2026-05-04 09:52 54.44764 -110.62955 13374 ft 327 kts 284°
2026-05-04 09:52 54.45316 -110.66737 14320 ft 331 kts 284°
2026-05-04 09:52 54.45878 -110.70593 15226 ft 335 kts 284°
2026-05-04 09:52 54.46435 -110.74437 16077 ft 339 kts 284°
2026-05-04 09:53 54.47005 -110.78367 16904 ft 344 kts 284°
2026-05-04 09:53 54.47583 -110.82369 17706 ft 348 kts 284°
2026-05-04 09:53 54.48167 -110.86422 18481 ft 352 kts 284°
2026-05-04 09:53 54.48746 -110.90450 19216 ft 356 kts 284°
2026-05-04 09:54 54.49343 -110.94616 19942 ft 360 kts 284°
2026-05-04 09:54 54.49939 -110.98786 20636 ft 364 kts 284°
2026-05-04 09:54 54.50540 -111.03001 21306 ft 368 kts 284°
2026-05-04 09:54 54.51149 -111.07287 21958 ft 372 kts 284°
2026-05-04 09:55 54.51764 -111.11623 22589 ft 375 kts 284°
2026-05-04 09:55 54.52381 -111.15990 23197 ft 379 kts 284°
2026-05-04 09:55 54.53002 -111.20391 23785 ft 382 kts 284°
2026-05-04 09:55 54.53622 -111.24801 24349 ft 386 kts 284°
2026-05-04 09:56 54.54252 -111.29301 24902 ft 389 kts 284°
2026-05-04 09:56 54.54887 -111.33845 25438 ft 392 kts 284°
2026-05-04 09:56 54.55518 -111.38371 25951 ft 396 kts 284°
2026-05-04 09:56 54.56162 -111.43005 26456 ft 399 kts 284°
2026-05-04 09:57 54.56804 -111.47642 26941 ft 402 kts 284°
2026-05-04 09:57 54.57452 -111.52341 27414 ft 405 kts 284°
2026-05-04 09:57 54.58094 -111.57007 27866 ft 408 kts 284°
2026-05-04 09:57 54.58749 -111.61782 28312 ft 411 kts 284°
2026-05-04 09:58 54.59401 -111.66552 28740 ft 413 kts 283°
2026-05-04 09:58 54.60059 -111.71374 29159 ft 416 kts 283°
2026-05-04 09:58 54.60719 -111.76234 29565 ft 419 kts 283°
2026-05-04 10:00 54.65393 -112.11109 32100 ft 436 kts 283°
2026-05-04 10:00 54.66060 -112.16154 32419 ft 439 kts 283°
2026-05-04 10:02 54.74817 -112.50029 34441 ft 453 kts 300°
2026-05-04 10:04 54.85412 -112.83054 36896 ft 448 kts 298°
2026-05-04 10:04 54.86906 -112.87746 37185 ft 448 kts 298°
2026-05-04 10:04 54.88403 -112.92458 37468 ft 448 kts 298°
2026-05-04 10:04 54.89904 -112.97193 37745 ft 448 kts 298°
2026-05-04 10:05 54.91403 -113.01928 38016 ft 448 kts 298°
2026-05-04 10:05 54.92898 -113.06660 38279 ft 448 kts 298°
2026-05-04 10:05 54.94387 -113.11386 38534 ft 448 kts 298°
2026-05-04 10:05 54.95833 -113.15981 38776 ft 448 kts 298°
2026-05-04 10:06 54.97349 -113.20810 39024 ft 448 kts 298°
2026-05-04 10:06 54.98831 -113.25539 39260 ft 448 kts 298°
2026-05-04 10:06 55.00314 -113.30281 39491 ft 448 kts 298°
2026-05-04 10:08 55.09178 -113.58822 40756 ft 448 kts 298°
2026-05-04 10:08 55.10672 -113.63665 40951 ft 448 kts 298°
2026-05-04 10:08 55.12141 -113.68440 41138 ft 448 kts 298°
2026-05-04 10:08 55.13602 -113.73195 41319 ft 448 kts 298°
2026-05-04 10:09 55.15080 -113.78016 41499 ft 448 kts 298°
2026-05-04 10:09 55.16534 -113.82770 41671 ft 448 kts 298°
2026-05-04 10:09 55.17988 -113.87532 41838 ft 448 kts 298°
2026-05-04 10:09 55.19454 -113.92344 42004 ft 448 kts 298°
2026-05-04 10:10 55.20921 -113.97169 42166 ft 448 kts 298°
2026-05-04 10:10 55.22368 -114.01934 42321 ft 448 kts 298°
2026-05-04 10:10 55.23829 -114.06761 42475 ft 448 kts 298°
2026-05-04 10:10 55.25282 -114.11567 42624 ft 448 kts 298°
2026-05-04 10:11 55.26711 -114.16304 42766 ft 448 kts 298°
2026-05-04 10:11 55.28177 -114.21175 42910 ft 448 kts 298°
2026-05-04 10:11 55.31060 -114.30783 43000 ft 452 kts 298°
2026-05-04 10:12 55.33981 -114.40556 43000 ft 454 kts 298°
2026-05-04 10:12 55.36894 -114.50341 43000 ft 455 kts 298°
2026-05-04 10:13 55.39818 -114.60208 43000 ft 456 kts 298°
2026-05-04 10:13 55.42726 -114.70062 43000 ft 456 kts 297°
2026-05-04 10:14 55.45623 -114.79917 43000 ft 457 kts 297°
2026-05-04 10:16 55.57219 -115.19791 43000 ft 460 kts 297°
2026-05-04 10:16 55.60114 -115.29856 43000 ft 460 kts 297°
2026-05-04 10:17 55.62979 -115.39855 43000 ft 461 kts 297°
2026-05-04 10:19 55.74450 -115.80334 43000 ft 462 kts 296°
2026-05-04 10:19 55.77298 -115.90495 43000 ft 463 kts 296°
2026-05-04 10:20 55.80143 -116.00689 42999 ft 463 kts 296°
2026-05-04 10:20 55.82994 -116.10953 42999 ft 463 kts 296°
2026-05-04 10:21 55.85825 -116.21189 42999 ft 463 kts 296°
2026-05-04 10:21 55.88651 -116.31452 42999 ft 464 kts 296°
2026-05-04 10:22 55.92882 -116.46905 42999 ft 464 kts 296°
2026-05-04 10:23 55.95685 -116.57200 43000 ft 465 kts 296°
2026-05-04 10:25 56.06935 -116.98992 43000 ft 470 kts 295°
2026-05-04 10:25 56.09719 -117.09457 43000 ft 470 kts 295°
2026-05-04 10:26 56.12530 -117.20068 43000 ft 471 kts 295°
2026-05-04 10:26 56.15320 -117.30653 43000 ft 472 kts 295°
2026-05-04 10:27 56.18116 -117.41309 43000 ft 473 kts 295°
2026-05-04 10:27 56.21051 -117.51820 42969 ft 473 kts 307°
2026-05-04 10:28 56.25628 -117.60217 43001 ft 472 kts 315°
2026-05-04 10:28 56.30224 -117.68636 43001 ft 473 kts 314°
2026-05-04 10:29 56.34793 -117.77052 43000 ft 474 kts 314°
2026-05-04 10:29 56.39399 -117.85570 43000 ft 474 kts 314°
2026-05-04 10:30 56.43966 -117.94043 43000 ft 475 kts 314°
2026-05-04 10:30 56.48554 -118.02589 43000 ft 475 kts 314°
2026-05-04 10:31 56.53134 -118.11153 42999 ft 476 kts 314°
2026-05-04 10:32 56.69192 -118.41425 42999 ft 477 kts 314°
2026-05-04 10:33 56.73770 -118.50129 42999 ft 478 kts 314°
2026-05-04 10:33 56.78371 -118.58910 42999 ft 478 kts 314°
2026-05-04 10:34 56.82945 -118.67673 42999 ft 478 kts 313°
2026-05-04 10:34 56.87517 -118.76465 42999 ft 479 kts 313°
2026-05-04 10:35 56.92085 -118.85281 42999 ft 479 kts 313°
2026-05-04 10:35 56.96646 -118.94119 42999 ft 479 kts 313°
2026-05-04 10:36 57.01225 -119.03025 42999 ft 480 kts 313°
2026-05-04 10:36 57.05769 -119.11897 42999 ft 480 kts 313°
2026-05-04 10:37 57.10312 -119.20802 42999 ft 480 kts 313°
2026-05-04 10:37 57.14880 -119.29790 42999 ft 480 kts 313°
2026-05-04 10:39 57.30784 -119.61354 42999 ft 481 kts 313°
2026-05-04 10:40 57.35303 -119.70401 42999 ft 481 kts 312°
2026-05-04 10:40 57.39854 -119.79549 42999 ft 481 kts 312°
2026-05-04 10:41 57.44368 -119.88658 42999 ft 481 kts 312°
2026-05-04 10:41 57.48906 -119.97851 42999 ft 482 kts 312°
2026-05-04 10:42 57.53412 -120.07015 42999 ft 482 kts 312°
2026-05-04 10:42 57.57932 -120.16245 42999 ft 482 kts 312°
2026-05-04 10:43 57.62433 -120.25472 42999 ft 482 kts 312°
2026-05-04 10:45 57.80409 -120.62693 43000 ft 483 kts 312°
2026-05-04 10:45 57.84896 -120.72078 43000 ft 483 kts 311°
2026-05-04 10:46 57.89386 -120.81506 43000 ft 483 kts 311°
2026-05-04 10:46 57.93827 -120.90871 43000 ft 483 kts 311°
2026-05-04 10:47 57.98296 -121.00330 43000 ft 483 kts 311°
2026-05-04 10:47 58.02777 -121.09857 43000 ft 484 kts 311°
2026-05-04 10:49 58.20529 -121.47978 43000 ft 484 kts 311°
2026-05-04 10:50 58.24949 -121.57568 43000 ft 484 kts 311°
2026-05-04 10:52 58.42612 -121.96288 43000 ft 485 kts 310°
2026-05-04 10:52 58.47016 -122.06044 43000 ft 485 kts 310°
2026-05-04 10:54 58.64519 -122.45225 43000 ft 485 kts 310°
2026-05-04 10:56 58.81955 -122.84920 43000 ft 485 kts 310°
2026-05-04 10:57 58.86277 -122.94865 43000 ft 486 kts 310°
2026-05-04 10:57 58.90073 -123.05543 43035 ft 484 kts 295°
2026-05-04 10:58 58.92886 -123.17407 43001 ft 485 kts 294°
2026-05-04 10:58 58.95644 -123.29260 42999 ft 485 kts 294°
2026-05-04 10:59 58.98399 -123.41181 42999 ft 485 kts 294°
2026-05-04 10:59 59.01146 -123.53131 42999 ft 485 kts 294°
2026-05-04 11:00 59.03894 -123.65155 42999 ft 485 kts 294°
2026-05-04 11:02 59.14724 -124.13219 42999 ft 486 kts 293°
2026-05-04 11:05 59.34613 -125.04462 42999 ft 487 kts 292°
2026-05-04 11:06 59.37219 -125.16721 42999 ft 487 kts 292°
2026-05-04 11:06 59.39803 -125.28947 42999 ft 487 kts 292°
2026-05-04 11:10 59.57653 -126.15472 42999 ft 488 kts 292°
2026-05-04 11:12 59.67619 -126.65433 42999 ft 488 kts 291°
2026-05-04 11:12 59.70065 -126.77887 42999 ft 489 kts 291°
2026-05-04 11:13 59.72513 -126.90436 42999 ft 489 kts 291°
2026-05-04 11:13 59.74964 -127.03074 42999 ft 489 kts 291°
2026-05-04 11:14 59.77394 -127.15687 42999 ft 489 kts 291°
2026-05-04 11:16 59.86988 -127.66303 42999 ft 489 kts 290°
2026-05-04 11:16 59.89354 -127.78988 42999 ft 489 kts 290°
2026-05-04 11:17 59.91705 -127.91681 42999 ft 490 kts 290°
2026-05-04 11:19 60.01031 -128.42866 42999 ft 490 kts 290°
2026-05-04 11:19 60.03325 -128.55672 42999 ft 490 kts 290°
2026-05-04 11:20 60.05603 -128.68475 42999 ft 490 kts 289°
2026-05-04 11:20 60.07877 -128.81361 42999 ft 490 kts 288°
2026-05-04 11:22 60.07640 -129.28934 42999 ft 489 kts 267°
2026-05-04 11:22 60.07470 -129.35678 42999 ft 490 kts 267°
2026-05-04 11:23 60.07114 -129.49316 42999 ft 490 kts 267°
2026-05-04 11:25 60.05757 -129.97029 42999 ft 490 kts 266°
2026-05-04 11:25 60.05338 -130.10663 42999 ft 490 kts 266°
2026-05-04 11:27 60.03276 -130.71991 42998 ft 491 kts 265°
2026-05-04 11:28 60.02780 -130.85603 42999 ft 491 kts 265°
2026-05-04 11:28 60.02266 -130.99286 42999 ft 491 kts 265°
2026-05-04 11:29 60.01741 -131.12920 42999 ft 491 kts 265°
2026-05-04 11:29 60.01201 -131.26541 42999 ft 491 kts 265°
2026-05-04 11:33 59.97024 -132.21956 42999 ft 492 kts 265°
2026-05-04 11:33 59.96370 -132.35600 42999 ft 492 kts 265°
2026-05-04 11:34 59.95702 -132.49226 42999 ft 492 kts 265°
2026-05-04 11:34 59.95020 -132.62839 42999 ft 493 kts 265°
2026-05-04 11:35 59.94326 -132.76427 42999 ft 493 kts 264°
2026-05-04 11:35 59.93613 -132.90088 42999 ft 493 kts 264°
2026-05-04 11:36 59.92902 -133.03719 42996 ft 493 kts 266°
2026-05-04 11:36 59.93201 -133.10426 42996 ft 491 kts 285°
2026-05-04 11:36 59.94594 -133.16707 43006 ft 490 kts 304°
2026-05-04 11:37 59.96865 -133.21699 43039 ft 488 kts 319°
2026-05-04 11:37 59.99329 -133.26291 43003 ft 489 kts 315°
2026-05-04 11:37 60.04078 -133.36058 43000 ft 490 kts 314°
2026-05-04 11:38 60.08808 -133.45938 42999 ft 490 kts 314°
2026-05-04 11:38 60.13522 -133.55838 42999 ft 491 kts 314°
2026-05-04 11:39 60.18203 -133.65710 42999 ft 491 kts 313°
2026-05-04 11:41 60.34636 -134.00722 42999 ft 492 kts 313°
2026-05-04 11:41 60.39299 -134.10759 42999 ft 492 kts 313°
2026-05-04 11:42 60.43985 -134.20888 42999 ft 493 kts 313°
2026-05-04 11:42 60.48650 -134.31023 42999 ft 493 kts 313°
2026-05-04 11:43 60.53345 -134.41264 42999 ft 493 kts 313°
2026-05-04 11:43 60.58008 -134.51482 42999 ft 493 kts 313°
2026-05-04 11:44 60.62660 -134.61725 42999 ft 493 kts 313°
2026-05-04 11:44 60.67315 -134.72020 42999 ft 494 kts 312°
2026-05-04 11:45 60.71932 -134.82277 42999 ft 494 kts 312°
2026-05-04 11:45 60.74439 -134.87070 42965 ft 494 kts 326°
2026-05-04 11:45 60.77514 -134.90112 43019 ft 492 kts 341°
2026-05-04 11:46 60.83875 -134.94923 42999 ft 492 kts 337°
2026-05-04 11:46 60.86754 -134.98622 43000 ft 491 kts 317°
2026-05-04 11:46 60.88859 -135.04048 43011 ft 490 kts 298°
2026-05-04 11:46 60.89968 -135.10544 43018 ft 488 kts 279°
2026-05-04 11:47 60.89975 -135.17462 43018 ft 488 kts 260°
2026-05-04 11:47 60.88871 -135.23972 43018 ft 487 kts 240°
2026-05-04 11:47 60.86789 -135.29341 43018 ft 486 kts 221°
2026-05-04 11:47 60.83957 -135.32996 43018 ft 485 kts 202°
2026-05-04 11:48 60.80709 -135.34515 43019 ft 484 kts 183°
2026-05-04 11:48 60.77387 -135.33742 43019 ft 484 kts 163°
2026-05-04 11:48 60.74386 -135.30766 43019 ft 483 kts 144°
2026-05-04 11:48 60.72020 -135.26045 43042 ft 482 kts 130°
2026-05-04 11:49 60.69906 -135.20755 43005 ft 484 kts 129°
2026-05-04 11:49 60.65633 -135.10124 43000 ft 485 kts 129°
2026-05-04 11:50 60.61388 -134.99579 43000 ft 486 kts 130°
2026-05-04 11:50 60.58886 -134.94916 42982 ft 486 kts 148°
2026-05-04 11:50 60.55818 -134.92268 43012 ft 482 kts 167°
2026-05-04 11:50 60.52741 -134.91835 42904 ft 418 kts 187°
2026-05-04 11:51 60.50055 -134.92232 42776 ft 368 kts 172°
2026-05-04 11:51 60.47705 -134.91115 41167 ft 373 kts 162°
2026-05-04 11:51 60.45436 -134.88731 37269 ft 412 kts 140°
2026-05-04 11:51 60.44123 -134.84175 35306 ft 389 kts 83°
2026-05-04 11:52 60.45419 -134.79950 31312 ft 412 kts 44°
2026-05-04 11:52 60.47185 -134.75803 29230 ft 372 kts 56°
2026-05-04 11:52 60.48431 -134.71755 28301 ft 330 kts 57°
2026-05-04 11:52 60.49698 -134.68027 25637 ft 344 kts 54°
2026-05-04 11:53 60.51154 -134.64467 23319 ft 335 kts 41°
2026-05-04 11:53 60.52966 -134.62114 20115 ft 351 kts 21°
2026-05-04 11:53 60.55192 -134.61395 16620 ft 347 kts 349°
2026-05-04 11:53 60.57048 -134.63620 14314 ft 319 kts 307°
2026-05-04 11:55 60.60938 -134.87074 3554 ft 188 kts 279°
2026-05-04 11:55 60.61215 -134.89609 3405 ft 179 kts 287°
2026-05-04 11:56 60.61642 -134.91939 3301 ft 178 kts 293°
2026-05-04 11:56 60.62135 -134.94234 3342 ft 176 kts 294°
2026-05-04 11:56 60.62690 -134.96443 3417 ft 173 kts 301°
2026-05-04 11:56 60.63361 -134.98463 3510 ft 173 kts 308°
2026-05-04 11:57 60.64195 -135.00252 3617 ft 175 kts 320°
2026-05-04 11:57 60.65202 -135.01735 3581 ft 182 kts 328°
2026-05-04 11:57 60.66204 -135.02882 3412 ft 149 kts 334°
2026-05-04 11:57 60.67134 -135.03735 3062 ft 150 kts 338°
2026-05-04 11:58 60.68106 -135.04521 2792 ft 149 kts 339°
2026-05-04 11:58 60.69078 -135.05267 2472 ft 147 kts 339°
2026-05-04 11:58 60.69975 -135.05969 2321 ft 124 kts 339°
2026-05-04 11:58 60.70466 -135.06358 2330 ft 0 kts 338°